Home > Weather > Seattle > Past weeks

Flag for USA Past Weather in Seattle, Washington, USA — Yesterday and Last 2 Weeks

Now
69 °F

Clear.


Feels Like: 69 °F
Forecast: 61 / 80 °F
Wind: No wind

Location: Seattle Boeing Field

Current Time: Jun 27, 2016 at 12:50:51 AM

Latest Report: Jun 26, 2016 at 11:53 PM


Visibility: 10 mi

Pressure: 30.11 "Hg

Humidity: 57%

Dew Point: 53 °F

Location of SeattleLocation

Past Weather in Seattle — Graph

°F

Seattle Temperature Yesterday

Maximum temperature yesterday: 77 °F (at 3:53 PM)
Minimum temperature yesterday: 57 °F (at 4:53 AM)
Average temperature yesterday: 68 °F

High & Low Weather Summary for the Past Weeks

 TemperatureHumidityPressure
High77 °F (Jun 26, 3:53 PM)97% (Jun 23, 7:53 AM)30.41 "Hg (Jun 23, 7:53 AM)
Low45 °F (Jun 15, 4:53 AM)31% (Jun 16, 3:53 PM)29.89 "Hg (Jun 15, 4:53 PM)
Average61 °F68%30.13 "Hg
* Reported Jun 11 10:53 PM — Jun 26 10:53 PM, Seattle, Weather by CustomWeather, © 2016

Note: Actual official high and low records may vary slightly from our data, if they occured in-between our weather recording intervals... More about our weather records

Advertising

Seattle Weather History for the Previous 24 Hours

Scroll right to see more
 ConditionsComfort  
Time TempWeatherWind HumidityBarometerVisibility
10:53 PM
Sun, Jun 26
71 °FClear.5 mph55%30.10 "Hg10 mi
9:53 PM71 °FScattered clouds.5 mph55%30.10 "Hg10 mi
8:53 PM72 °FScattered clouds.7 mph55%30.09 "Hg10 mi
7:53 PM74 °FScattered clouds.8 mph53%30.09 "Hg10 mi
6:53 PM75 °FScattered clouds.8 mph52%30.09 "Hg10 mi
5:53 PM77 °FScattered clouds.9 mph50%30.09 "Hg10 mi
4:53 PM77 °FScattered clouds.12 mph48%30.10 "Hg10 mi
3:53 PM77 °FPassing clouds.10 mph47%30.12 "Hg10 mi
2:53 PM76 °FScattered clouds.8 mph48%30.14 "Hg10 mi
1:53 PM74 °FPassing clouds.8 mph56%30.16 "Hg10 mi
12:53 PM73 °FSunny.12 mph55%30.17 "Hg10 mi
11:53 AM70 °FSunny.13 mph59%30.19 "Hg10 mi
10:53 AM70 °FSunny.10 mph57%30.19 "Hg10 mi
9:53 AM68 °FSunny.5 mph63%30.21 "Hg10 mi
8:53 AM64 °FSunny.5 mph70%30.22 "Hg10 mi
7:53 AM61 °FSunny.6 mph75%30.22 "Hg10 mi
6:53 AM59 °FSunny.No wind78%30.22 "Hg10 mi
5:53 AM57 °FClear.No wind83%30.22 "Hg10 mi
4:53 AM57 °FClear.No wind83%30.22 "Hg10 mi
3:53 AM58 °FClear.No wind81%30.22 "Hg10 mi
2:53 AM58 °FClear.No wind81%30.22 "Hg10 mi
1:53 AM59 °FClear.No wind75%30.22 "Hg10 mi
12:53 AM60 °FClear.3 mph75%30.22 "Hg10 mi
Weather by CustomWeather, © 2016

See weather overviewHow to use our weather pages